Flag for U.S.A. Weather past 2 weeks in Roanoke, Virginia, U.S.A.

Now
74 °F

Partly sunny.


Feels Like: 77 °F
Forecast: 58 / 82 °F
Wind: No wind

Location: Roanoke Regional Airport

Current Time: Jul 31, 2014 at 11:44:39 AM

Latest Report: Jul 31, 2014 at 10:54 AM


Visibility: 10 mi

Pressure: 30.14 "Hg

Humidity: 56%

Dew point: 57 °F

Location of RoanokeLocation

Historic Weather in Roanoke — Graph

°F

Roanoke temperature yesterday

Maximum temperature yesterday: 76 °F (at 2:54 PM)
Minimum temperature yesterday: 55 °F (at 6:54 AM)
Average temperature yesterday: 67 °F

Past Weeks' High & Low Weather Summary

 TemperatureHumidityPressure
High92 °F (Jul 23, 1:54 PM)96% (Jul 22, 6:54 AM)30.24 "Hg (Jul 22, 6:54 AM)
Low54 °F (Jul 17, 5:54 AM)31% (Jul 26, 4:54 PM)29.72 "Hg (Jul 28, 3:54 AM)
Average72 °F68%30.03 "Hg
* Reported Jul 16 9:54 AM — Jul 31 9:54 AM, Roanoke, Weather by CustomWeather, © 2014

Note: Actual official high and low records may vary slightly from our data, if they occured in-between our weather recording intervals... More about our weather records

Advertising

Roanoke weather history for previous 24 hours

 ConditionsComfort  
Time TempWeatherWind HumidityBarometerVisibility
9:54 AM
Jul 31
71 °FPartly sunny.No wind63%30.14 "Hg10 mi
8:54 AM66 °FPartly sunny.5 mph70%30.14 "Hg10 mi
7:54 AM62 °FPartly sunny.3 mph78%30.15 "Hg10 mi
6:54 AM58 °FPassing clouds.No wind87%30.13 "Hg10 mi
5:54 AM59 °FPassing clouds.5 mph84%30.12 "Hg10 mi
4:54 AM59 °FPassing clouds.No wind87%30.11 "Hg10 mi
3:54 AM60 °FPassing clouds.No wind83%30.11 "Hg10 mi
2:54 AM59 °FPassing clouds.No wind87%30.11 "Hg10 mi
1:54 AM61 °FPassing clouds.No wind83%30.11 "Hg10 mi
12:54 AM62 °FPassing clouds.No wind80%30.11 "Hg10 mi
11:54 PM
Jul 30
63 °FPassing clouds.No wind81%30.10 "Hg10 mi
10:54 PM67 °FPassing clouds.No wind71%30.09 "Hg10 mi
9:54 PM70 °FPassing clouds.No wind61%30.09 "Hg10 mi
8:54 PM71 °FScattered clouds.No wind57%30.08 "Hg10 mi
7:54 PM72 °FScattered clouds.5 mph57%30.07 "Hg10 mi
6:54 PM75 °FScattered clouds.6 mph50%30.06 "Hg10 mi
5:54 PM75 °FScattered clouds.5 mph48%30.05 "Hg10 mi
4:54 PM75 °FPartly sunny.7 mph48%30.06 "Hg10 mi
3:54 PM75 °FPartly sunny.8 mph47%30.07 "Hg10 mi
2:54 PM76 °FBroken clouds.6 mph42%30.08 "Hg10 mi
1:54 PM74 °FScattered clouds.5 mph46%30.09 "Hg10 mi
12:54 PM75 °FScattered clouds.No wind45%30.10 "Hg10 mi
11:54 AM72 °FScattered clouds.No wind48%30.11 "Hg10 mi
Weather by CustomWeather, © 2014

See weather overviewHow to use our weather pages